Home   Weather   Cork   Past weeks

Flag for Ireland Past Weather in Cork, Ireland — Yesterday and Last 2 Weeks

Now
60 °F

Fog.


Feels Like: 59 °F
Forecast: 50 / 59 °F
Wind: 6 mph from Southwest

Location: Cork Airport

Current Time: Sep 28, 2016 at 7:54:53 AM

Latest Report: Sep 28, 2016 at 7:00 AM


Visibility: 1 mi

Pressure: 30.17 "Hg

Humidity: 98%

Dew Point: 59 °F

Location of CorkLocation

Past Weather in Cork — Graph

°F

Cork Temperature Yesterday

Maximum temperature yesterday: 67 °F (at 4:00 PM)
Minimum temperature yesterday: 53 °F (at 10:00 PM)
Average temperature yesterday: 59 °F

High & Low Weather Summary for the Past Weeks

 TemperatureHumidityPressure
High67 °F (Sep 27, 4:00 PM)100% (Sep 24, 11:00 AM)30.34 "Hg (Sep 24, 11:00 AM)
Low44 °F (Sep 22, 7:00 AM)55% (Sep 27, 4:00 PM)29.59 "Hg (Sep 24, 6:00 PM)
Average55 °F86%30.03 "Hg
* Reported Sep 13 6:00 AM — Sep 28 6:00 AM, Cork, Weather by CustomWeather, © 2016

Note: Actual official high and low records may vary slightly from our data, if they occured in-between our weather recording intervals... More about our weather records

Advertising

Cork Weather History for the Previous 24 Hours

Scroll right to see more
 ConditionsComfort  
Time TempWeatherWind HumidityBarometerVisibility
6:00 AM
Wed, Sep 28
59 °FFog.7 mph98%30.18 "Hg2 mi
5:00 AM58 °FDrizzle. Low clouds.6 mph98%30.20 "Hg0 mi
4:00 AM58 °FFog.6 mph98%30.21 "Hg1 mi
3:00 AM57 °FDrizzle. Low clouds.3 mph98%30.24 "Hg1 mi
2:00 AM57 °FFog.2 mph98%30.25 "Hg2 mi
1:00 AM56 °FFog.5 mph95%30.25 "Hg4 mi
12:00 AM55 °FFog.7 mph95%30.25 "Hg4 mi
11:00 PM
Tue, Sep 27
54 °FFog.5 mph94%30.27 "Hg7 mi
10:00 PM53 °FFog.3 mph94%30.26 "Hg9 mi
9:00 PM54 °FClear.3 mph92%30.25 "Hg16 mi
8:00 PM55 °FPassing clouds.8 mph89%30.24 "Hg16 mi
7:00 PM58 °FPassing clouds.5 mph84%30.22 "Hg16 mi
6:00 PM64 °FPassing clouds.6 mph65%30.20 "Hg19 mi
5:00 PM67 °FPassing clouds.5 mph58%30.20 "Hg19 mi
4:00 PM67 °FPassing clouds.3 mph55%30.19 "Hg19 mi
3:00 PM66 °FScattered clouds.7 mph56%30.18 "Hg17 mi
2:00 PM64 °FPassing clouds.6 mph63%30.18 "Hg17 mi
1:00 PM63 °FPartly sunny.7 mph67%30.18 "Hg16 mi
12:00 PM61 °FScattered clouds.6 mph75%30.16 "Hg19 mi
11:00 AM58 °FPartly sunny.7 mph76%30.13 "Hg16 mi
10:00 AM56 °FPartly sunny.6 mph82%30.11 "Hg16 mi
9:00 AM56 °FPartly sunny.5 mph85%30.09 "Hg16 mi
8:00 AM55 °FPartly sunny.8 mph91%30.04 "Hg16 mi
7:00 AM57 °FLow clouds.9 mph98%29.99 "Hg16 mi
Weather by CustomWeather, © 2016

See weather overviewHow to use our weather pages